Location: Cactus School
(34.5700°N, 118.0931°W)
Time: 00:37:07
(UTC-08:00)

N. Korean satellite - Pass Details

Date: 17 November 2017
Orbit: 460 x 515 km, 97.2° (Epoch: 17 November)

Event Time Altitude Azimuth Distance (km) Brightness Sun altitude
Rises 17:42:31 0° 158° (SSE) 2,473 10.1 -11.8°
Reaches altitude 10° 17:44:34 10° 154° (SSE) 1,606 9.1 -12.2°
Maximum altitude 17:47:55 54° 77° (ENE) 574 6.5 -12.8°
Drops below altitude 10° 17:51:22 10° 359° (N) 1,639 9.1 -13.5°
Sets 17:53:28 0° 354° (N) 2,529 10.1 -13.9°
